This demonstration page uses our WeatherBlox Daily Observations layout. Learn more.

Hourly Observations for June 27, 2019

Temp ( °F °C ) Dew Point ( °F °C ) Humidity (%) Winds ( mph kmh ) Pressure ( in mb ) Visibility ( mi km ) Precip ( " mm )
12:15 am 00:15 Clear 76 24.7 67 19.5 73 73 SSE 9 15 29.88 1012 10 16.09344 0 0
12:35 am 00:35 Clear 76 24.5 67 19.5 74 74 SSE 10 17 29.88 1012 10 16.09344 0 0
12:55 am 00:55 Clear 76 24.5 67 19.5 74 74 SSE 12 19 29.88 1012 10 16.09344 0 0
1:15 am 01:15 Clear 76 24.6 67 19.5 73 73 S 16 26 29.85 1011 10 16.09344 0 0
1:35 am 01:35 Clear 76 24.5 67 19.5 74 74 SSE 15 24 29.85 1011 10 16.09344 0 0
1:55 am 01:55 Clear 76 24.5 67 19.5 74 74 SSE 13 20 29.85 1011 10 16.09344 0 0
2:15 am 02:15 Clear 75 24 67 19.5 76 76 S 13 20 29.88 1012 10 16.09344 0 0
2:35 am 02:35 Clear 75 24 67 19.6 76 76 S 14 22 29.85 1011 10 16.09344 0 0
2:55 am 02:55 Clear 75 23.8 67 19.6 77 77 S 15 24 29.85 1011 10 16.09344 0 0
3:15 am 03:15 Clear 75 23.7 67 19.6 78 78 S 15 24 29.85 1011 10 16.09344 0 0
3:35 am 03:35 Clear 74 23.3 67 19.5 79 79 SSE 14 22 29.85 1011 10 16.09344 0 0
3:55 am 03:55 Clear 74 23.1 67 19.5 80 80 S 15 24 29.85 1011 10 16.09344 0 0
4:15 am 04:15 Clear 73 23 67 19.4 80 80 S 16 26 29.85 1011 10 16.09344 0 0
4:35 am 04:35 Clear 73 22.8 67 19.3 81 81 S 15 24 29.85 1011 10 16.09344 0 0
4:55 am 04:55 Clear 73 22.6 67 19.3 82 82 S 16 26 29.88 1012 10 16.09344 0 0
5:15 am 05:15 Clear 72 22.3 67 19.3 83 83 S 15 24 29.88 1012 10 16.09344 0 0
5:35 am 05:35 Clear 72 22.2 67 19.3 84 84 SSE 15 24 29.88 1012 10 16.09344 0 0
5:55 am 05:55 Clear 71 21.8 67 19.2 85 85 SSE 9 15 29.88 1012 10 16.09344 0 0
6:15 am 06:15 Sunny 71 21.6 67 19.2 86 86 SSE 13 20 29.88 1012 10 16.09344 0 0
6:35 am 06:35 Sunny 71 21.6 67 19.2 86 86 S 10 17 29.88 1012 10 16.09344 0 0
6:55 am 06:55 Sunny 71 21.5 67 19.2 87 87 S 12 19 29.88 1012 10 16.09344 0 0
7:15 am 07:15 Sunny 71 21.8 67 19.4 86 86 S 12 19 29.88 1012 10 16.09344 0 0
7:35 am 07:35 Sunny 73 22.5 67 19.5 83 83 S 12 19 29.88 1012 10 16.09344 0 0
7:55 am 07:55 Sunny 73 23 67 19.5 81 81 S 15 24 29.85 1011 10 16.09344 0 0
8:15 am 08:15 Sunny 74 23.5 67 19.7 79 79 S 16 26 29.85 1011 10 16.09344 0 0
8:35 am 08:35 Sunny 75 24 67 19.6 76 76 S 15 24 29.85 1011 10 16.09344 0 0
8:55 am 08:55 Sunny 76 24.5 67 19.5 74 74 S 20 31 29.85 1011 10 16.09344 0 0
9:15 am 09:15 Sunny 77 24.9 67 19.6 72 72 S 21 33 29.85 1011 10 16.09344 0 0
9:35 am 09:35 Sunny 77 25.2 67 19.5 71 71 S 20 31 29.85 1011 10 16.09344 0 0
9:55 am 09:55 Sunny 78 25.8 67 19.6 69 69 S 18 30 29.85 1011 10 16.09344 0 0
10:15 am 10:15 Sunny 79 26.3 67 19.5 66 66 S 10 17 29.85 1011 10 16.09344 0 0
10:35 am 10:35 Sunny 80 26.8 67 19.7 65 65 S 15 24 29.83 1010 10 16.09344 0 0
10:55 am 10:55 Sunny 81 27.2 68 19.9 64 64 S 13 20 29.83 1010 10 16.09344 0 0
11:15 am 11:15 Sunny 82 27.6 68 19.8 63 63 S 13 20 29.83 1010 10 16.09344 0 0
11:35 am 11:35 Sunny 82 28 67 19.7 61 61 S 14 22 29.83 1010 10 16.09344 0 0
11:55 am 11:55 Sunny 83 28.5 68 19.9 60 60 S 15 24 29.83 1010 10 16.09344 0 0
12:15 pm 12:15 Sunny 84 29 68 19.8 58 58 S 13 20 29.83 1010 10 16.09344 0 0
12:35 pm 12:35 Sunny 85 29.6 67 19.7 55 55 S 15 24 29.83 1010 10 16.09344 0 0
12:55 pm 12:55 Sunny 86 30.1 67 19.5 53 53 S 17 28 29.83 1010 10 16.09344 0 0
1:15 pm 13:15 Sunny 87 30.8 67 19.5 51 51 SSW 15 24 29.8 1009 10 16.09344 0 0
1:35 pm 13:35 Sunny 89 31.4 68 19.9 50 50 S 15 24 29.8 1009 10 16.09344 0 0
1:55 pm 13:55 Sunny 90 32 66 18.9 46 46 SSW 15 24 29.8 1009 10 16.09344 0 0
2:15 pm 14:15 Sunny 90 32.3 66 19.1 46 46 S 13 20 29.77 1008 10 16.09344 0 0
2:35 pm 14:35 Sunny 91 32.8 65 18.4 42 42 S 15 24 29.77 1008 10 16.09344 0 0
2:55 pm 14:55 Sunny 92 33.1 65 18.4 42 42 S 15 24 29.77 1008 10 16.09344 0 0
3:15 pm 15:15 Sunny 92 33.5 65 18.1 40 40 S 16 26 29.77 1008 10 16.09344 0 0
3:30 pm 15:30 Sunny 93 33.8 64 17.9 39 39 S 17 28 29.77 1008 10 16.09344 0 0
3:55 pm 15:55 Sunny 93 34.1 65 18.6 40 40 S 14 22 29.74 1007 10 16.09344 0 0
4:15 pm 16:15 Sunny 94 34.5 65 18.4 38 38 S 14 22 29.74 1007 10 16.09344 0 0
4:35 pm 16:35 Sunny 95 34.8 65 18.4 38 38 S 13 20 29.74 1007 10 16.09344 0 0
4:55 pm 16:55 Sunny 95 34.9 64 17.9 36 36 SSW 15 24 29.71 1006 10 16.09344 0 0
5:15 pm 17:15 Sunny 95 35.1 64 17.6 35 35 SSW 16 26 29.71 1006 10 16.09344 0 0
5:35 pm 17:35 Sunny 95 35.1 64 18 36 36 SSW 13 20 29.71 1006 10 16.09344 0 0
5:55 pm 17:55 Sunny 95 34.8 64 17.6 36 36 SSW 10 17 29.71 1006 10 16.09344 0 0
6:15 pm 18:15 Sunny 95 35 64 18 36 36 SSW 7 11 29.71 1006 10 16.09344 0 0
6:35 pm 18:35 Sunny 94 34.3 66 18.8 40 40 SW 7 11 29.71 1006 10 16.09344 0 0
6:55 pm 18:55 Sunny 93 33.8 64 18 39 39 SW 5 7 29.71 1006 10 16.09344 0 0
7:15 pm 19:15 Sunny 92 33.4 66 19.1 43 43 WSW 5 7 29.74 1007 10 16.09344 0 0
7:35 pm 19:35 Sunny 91 32.6 69 20.7 49 49 W 3 6 29.74 1007 10 16.09344 0 0
7:55 pm 19:55 Sunny 89 31.8 69 20.4 51 51 W 5 7 29.74 1007 10 16.09344 0 0
8:15 pm 20:15 Sunny 89 31.7 69 20.8 52 52 W 3 6 29.74 1007 10 16.09344 0 0
8:35 pm 20:35 Sunny 87 30.6 69 20.6 55 55 W 3 6 29.74 1007 10 16.09344 0 0
8:55 pm 20:55 Sunny 85 29.5 71 21.8 63 63 WNW 3 6 29.8 1009 10 16.09344 0 0
9:15 pm 21:15 Clear 83 28.2 72 22.1 70 70 NW 3 6 29.8 1009 10 16.09344 0 0
9:35 pm 21:35 Clear 81 27.2 71 21.7 72 72 NW 3 6 29.8 1009 10 16.09344 0 0
9:55 pm 21:55 Clear 78 25.3 71 21.5 80 80 Calm 29.83 1010 10 16.09344 0 0
10:15 pm 22:15 Clear 78 25.5 70 21 76 76 Calm 29.83 1010 10 16.09344 0 0
10:35 pm 22:35 Clear 79 26 69 20.7 73 73 Calm 29.85 1011 10 16.09344 0 0
10:55 pm 22:55 Clear 76 24.2 69 20.6 80 80 Calm 29.85 1011 10 16.09344 0 0
11:15 pm 23:15 Clear 74 23.1 70 21.3 90 90 Calm 29.85 1011 10 16.09344 0 0
11:35 pm 23:35 Clear 75 23.8 71 21.4 86 86 SW 3 6 29.85 1011 10 16.09344 0 0
11:55 pm 23:55 Clear 76 24.3 70 20.9 81 81 SSW 5 7 29.85 1011 10 16.09344 0 0

Powered by AerisWeather